AFL2144 UUEE-LTAI

Flight info

Callsign AFL2144
Flight time N/A
Altitude 35000
Route TOGMO3H TOGMO M56 ABAGI B105 NIMTA/K0907F360 B105 NATIT DCT MOLED DCT SL DCT SUBED DCT LIDUS G242 ZG DCT KUDAS DCT MKL DCT KUFAN/N0483F360 DCT NOLGA UG261 TBN UW706 SIV UT54 HALIL/N0490F350 UW77 HISAR
Aircraft B77W/H-SDE1E2E3FGHIJ2J3J4J5M1RWXY/LB1D1

Departure

Time 2026-05-01 14:28
Airport Sheremetyevo International Airport (UUEE)

Arrival

Time N/A
Airport Antalya International Airport (LTAI)
Time Latitude Longitude Altitude Speed Heading
2026-05-01 13:22 55.97991 37.42820 619 ft 0 kts 204°
2026-05-01 14:12 55.97998 37.42825 619 ft 2 kts 204°
2026-05-01 14:13 55.98011 37.42836 619 ft 2 kts 204°
2026-05-01 14:13 55.98025 37.42848 620 ft 2 kts 204°
2026-05-01 14:13 55.98038 37.42859 620 ft 2 kts 204°
2026-05-01 14:13 55.98052 37.42870 620 ft 2 kts 207°
2026-05-01 14:14 55.98065 37.42884 620 ft 2 kts 219°
2026-05-01 14:14 55.98076 37.42902 620 ft 2 kts 227°
2026-05-01 14:14 55.98085 37.42923 620 ft 2 kts 236°
2026-05-01 14:14 55.98092 37.42947 620 ft 2 kts 245°
2026-05-01 14:15 55.98098 37.42970 620 ft 1 kts 253°
2026-05-01 14:15 55.98098 37.42976 620 ft 0 kts 255°
2026-05-01 14:19 55.98098 37.42971 620 ft 1 kts 255°
2026-05-01 14:19 55.98093 37.42939 620 ft 3 kts 255°
2026-05-01 14:19 55.98083 37.42873 620 ft 7 kts 255°
2026-05-01 14:19 55.98070 37.42788 620 ft 7 kts 255°
2026-05-01 14:20 55.98056 37.42705 620 ft 6 kts 243°
2026-05-01 14:20 55.97971 37.42674 619 ft 7 kts 166°
2026-05-01 14:20 55.97921 37.42698 618 ft 7 kts 164°
2026-05-01 14:21 55.97868 37.42725 618 ft 8 kts 164°
2026-05-01 14:21 55.97813 37.42752 617 ft 8 kts 164°
2026-05-01 14:21 55.97776 37.42812 617 ft 7 kts 93°
2026-05-01 14:22 55.97796 37.42987 616 ft 7 kts 76°
2026-05-01 14:22 55.97810 37.43080 616 ft 9 kts 74°
2026-05-01 14:22 55.97831 37.43214 617 ft 12 kts 74°
2026-05-01 14:22 55.97853 37.43360 618 ft 11 kts 74°
2026-05-01 14:23 55.97871 37.43481 619 ft 9 kts 75°
2026-05-01 14:23 55.97886 37.43579 620 ft 7 kts 75°
2026-05-01 14:23 55.97897 37.43656 621 ft 5 kts 75°
2026-05-01 14:23 55.97908 37.43727 621 ft 7 kts 75°
2026-05-01 14:24 55.97921 37.43820 622 ft 7 kts 75°
2026-05-01 14:24 55.97932 37.43896 623 ft 5 kts 75°
2026-05-01 14:24 55.97941 37.43956 624 ft 4 kts 75°
2026-05-01 14:24 55.97940 37.43998 624 ft 2 kts 112°
2026-05-01 14:25 55.97930 37.44019 624 ft 1 kts 144°
2026-05-01 14:25 55.97921 37.44027 624 ft 1 kts 156°
2026-05-01 14:25 55.97897 37.44043 623 ft 5 kts 163°
2026-05-01 14:25 55.97847 37.44067 623 ft 9 kts 164°
2026-05-01 14:26 55.97798 37.44067 622 ft 5 kts 213°
2026-05-01 14:26 55.97774 37.44004 622 ft 0 kts 251°
2026-05-01 14:27 55.97740 37.43795 620 ft 53 kts 256°
2026-05-01 14:27 55.97578 37.42698 615 ft 127 kts 256°
2026-05-01 14:27 55.97302 37.40780 641 ft 186 kts 255°
2026-05-01 14:28 55.96651 37.36138 2157 ft 194 kts 256°
2026-05-01 14:28 55.96306 37.33800 2823 ft 196 kts 256°
2026-05-01 14:28 55.95943 37.31469 3500 ft 198 kts 256°
2026-05-01 14:28 55.95558 37.29056 3969 ft 211 kts 257°
2026-05-01 14:29 55.95161 37.26487 4515 ft 222 kts 257°
2026-05-01 14:29 55.94750 37.23779 5066 ft 234 kts 257°
2026-05-01 14:30 55.93449 37.14833 7037 ft 258 kts 259°
2026-05-01 14:30 55.92984 37.11711 7636 ft 268 kts 255°
2026-05-01 14:30 55.92430 37.08562 8457 ft 269 kts 255°
2026-05-01 14:31 55.91727 37.01937 9620 ft 280 kts 286°
2026-05-01 14:31 55.92597 36.98940 10279 ft 276 kts 317°
2026-05-01 14:31 55.94117 36.96903 10945 ft 279 kts 328°
2026-05-01 14:31 55.95747 36.94897 11428 ft 292 kts 328°
2026-05-01 14:32 55.97471 36.92989 12096 ft 295 kts 340°
2026-05-01 14:32 55.99482 36.92123 12752 ft 298 kts 359°
2026-05-01 14:32 56.01490 36.92540 13562 ft 297 kts 18°
2026-05-01 14:32 56.03308 36.94197 14484 ft 296 kts 35°
2026-05-01 14:33 56.04930 36.96413 15388 ft 297 kts 36°
2026-05-01 14:33 56.06600 36.98567 16231 ft 299 kts 33°
2026-05-01 14:33 56.08313 37.00635 17091 ft 301 kts 32°
2026-05-01 14:33 56.10032 37.02811 17887 ft 305 kts 39°
2026-05-01 14:34 56.11446 37.05633 18713 ft 309 kts 53°
2026-05-01 14:34 56.12420 37.09072 19599 ft 314 kts 66°
2026-05-01 14:34 56.13024 37.12804 20383 ft 318 kts 69°
2026-05-01 14:34 56.13579 37.16641 21140 ft 321 kts 69°
2026-05-01 14:35 56.14128 37.20508 21883 ft 323 kts 69°
2026-05-01 14:35 56.14613 37.24438 22648 ft 328 kts 74°
2026-05-01 14:35 56.14763 37.28540 23432 ft 335 kts 83°
2026-05-01 14:35 56.14534 37.32671 24104 ft 345 kts 91°
2026-05-01 14:36 56.13888 37.36921 24618 ft 361 kts 101°
2026-05-01 14:36 56.12791 37.41027 25221 ft 376 kts 110°
2026-05-01 14:36 56.11230 37.44873 25844 ft 389 kts 119°
2026-05-01 14:36 56.09475 37.48573 26379 ft 394 kts 119°
2026-05-01 14:37 56.07697 37.52326 26844 ft 399 kts 118°
2026-05-01 14:37 56.05906 37.56148 27277 ft 404 kts 118°
2026-05-01 14:37 56.04105 37.60013 27783 ft 408 kts 117°
2026-05-01 14:37 56.02298 37.63902 28350 ft 409 kts 117°
2026-05-01 14:38 56.00480 37.67823 28913 ft 410 kts 117°
2026-05-01 14:38 55.98641 37.71792 29414 ft 412 kts 117°
2026-05-01 14:38 55.96824 37.75721 29796 ft 417 kts 116°
2026-05-01 14:38 55.94944 37.79779 30271 ft 420 kts 116°
2026-05-01 14:39 55.93076 37.83805 30765 ft 421 kts 116°
2026-05-01 14:39 55.91178 37.87899 31103 ft 426 kts 117°
2026-05-01 14:39 55.89267 37.92014 31408 ft 431 kts 117°
2026-05-01 14:39 55.87345 37.96144 31691 ft 435 kts 117°
2026-05-01 14:40 55.85389 38.00340 31951 ft 439 kts 118°
2026-05-01 14:40 55.83450 38.04489 32272 ft 440 kts 119°
2026-05-01 14:40 55.81384 38.08566 32584 ft 450 kts 127°
2026-05-01 14:40 55.78930 38.12118 32861 ft 463 kts 137°
2026-05-01 14:41 55.76100 38.15028 32963 ft 481 kts 147°
2026-05-01 14:41 55.72949 38.17309 32946 ft 498 kts 153°
2026-05-01 14:41 55.69680 38.19438 32935 ft 510 kts 153°
2026-05-01 14:41 55.66295 38.21632 32916 ft 522 kts 153°
2026-05-01 14:42 55.62867 38.23857 33005 ft 531 kts 153°
2026-05-01 14:42 55.59388 38.26116 33329 ft 533 kts 154°
2026-05-01 14:42 55.55963 38.28337 33896 ft 527 kts 154°
2026-05-01 14:42 55.52539 38.30557 34618 ft 520 kts 155°
2026-05-01 14:43 55.49176 38.32738 35043 ft 519 kts 155°
2026-05-01 14:43 55.45764 38.34952 35165 ft 521 kts 155°
2026-05-01 14:43 55.42386 38.37141 35166 ft 519 kts 155°
2026-05-01 14:44 55.35669 38.41486 35170 ft 517 kts 155°
2026-05-01 14:44 55.25578 38.47991 35165 ft 518 kts 155°
2026-05-01 14:45 55.15496 38.54457 35155 ft 514 kts 156°
2026-05-01 14:46 55.08773 38.58751 35174 ft 516 kts 156°
2026-05-01 14:46 54.98719 38.65143 35167 ft 513 kts 156°
2026-05-01 14:47 54.91991 38.69403 35169 ft 516 kts 157°
2026-05-01 14:48 54.81922 38.75748 35165 ft 514 kts 157°
2026-05-01 14:48 54.71878 38.82045 35168 ft 514 kts 157°
2026-05-01 14:49 54.58486 38.90389 35170 ft 513 kts 158°
2026-05-01 14:50 54.45195 38.99170 35170 ft 509 kts 147°
2026-05-01 14:51 54.37446 39.10973 35179 ft 495 kts 121°
2026-05-01 14:52 54.34312 39.21222 35185 ft 487 kts 109°
2026-05-01 14:52 54.33032 39.26558 35177 ft 488 kts 109°
2026-05-01 14:53 54.29152 39.42647 35180 ft 489 kts 109°
2026-05-01 14:53 54.26525 39.53435 35183 ft 490 kts 109°
2026-05-01 14:54 54.23907 39.64123 35173 ft 489 kts 109°
2026-05-01 14:54 54.21261 39.74866 35181 ft 491 kts 110°
2026-05-01 14:55 54.18628 39.85495 35186 ft 490 kts 110°
2026-05-01 14:55 54.15975 39.96159 35187 ft 490 kts 110°
2026-05-01 14:56 54.13299 40.06858 35187 ft 492 kts 110°
2026-05-01 14:56 54.10929 40.17638 35190 ft 490 kts 104°
2026-05-01 14:57 54.09015 40.28748 35182 ft 490 kts 104°
2026-05-01 14:57 54.06121 40.45421 35174 ft 491 kts 104°
2026-05-01 14:58 54.04172 40.56536 35164 ft 491 kts 104°
2026-05-01 14:58 54.02216 40.67617 35158 ft 491 kts 105°
2026-05-01 14:59 54.00252 40.78660 35157 ft 492 kts 105°
2026-05-01 14:59 53.98278 40.89703 35151 ft 493 kts 105°
2026-05-01 15:00 53.95276 41.06411 35141 ft 494 kts 104°
2026-05-01 15:01 53.93446 41.17625 35146 ft 494 kts 104°
2026-05-01 15:01 53.91616 41.28833 35144 ft 494 kts 104°
2026-05-01 15:02 53.89772 41.40000 35141 ft 494 kts 104°
2026-05-01 15:02 53.87902 41.51237 35148 ft 495 kts 104°
2026-05-01 15:03 53.86030 41.62404 35159 ft 497 kts 104°
2026-05-01 15:03 53.84133 41.73638 35160 ft 497 kts 105°
2026-05-01 15:04 53.82216 41.84880 35162 ft 498 kts 105°
2026-05-01 15:04 53.80284 41.96116 35157 ft 498 kts 105°
2026-05-01 15:05 53.78349 42.07300 35160 ft 499 kts 105°
2026-05-01 15:05 53.76389 42.18560 35155 ft 499 kts 105°
2026-05-01 15:06 53.74424 42.29776 35154 ft 500 kts 105°
2026-05-01 15:06 53.72446 42.40995 35153 ft 499 kts 105°
2026-05-01 15:07 53.70426 42.52166 35144 ft 500 kts 109°
2026-05-01 15:07 53.67116 42.62413 35143 ft 502 kts 127°
2026-05-01 15:08 53.62131 42.70530 35143 ft 501 kts 146°
2026-05-01 15:08 53.55998 42.75984 35147 ft 500 kts 157°
2026-05-01 15:09 53.49633 42.80654 35145 ft 500 kts 158°
2026-05-01 15:09 53.43303 42.85242 35143 ft 498 kts 158°
2026-05-01 15:10 53.36964 42.89804 35144 ft 498 kts 158°
2026-05-01 15:10 53.27428 42.96624 35147 ft 499 kts 158°
2026-05-01 15:11 53.17885 43.03408 35145 ft 498 kts 158°
2026-05-01 15:12 53.11545 43.07928 35144 ft 496 kts 158°
2026-05-01 15:12 53.02137 43.14949 35141 ft 495 kts 157°
2026-05-01 15:14 52.86480 43.26540 35135 ft 495 kts 158°
2026-05-01 15:14 52.77058 43.33463 35132 ft 494 kts 158°
2026-05-01 15:15 52.64507 43.42629 35138 ft 493 kts 158°
2026-05-01 15:16 52.51963 43.51732 35139 ft 493 kts 158°
2026-05-01 15:18 52.36290 43.63026 35132 ft 492 kts 159°
2026-05-01 15:19 52.23777 43.71980 35121 ft 491 kts 160°
2026-05-01 15:19 52.14420 43.78640 35120 ft 490 kts 160°
2026-05-01 15:20 52.05072 43.85261 35119 ft 489 kts 160°
2026-05-01 15:21 51.98862 43.89644 35113 ft 488 kts 160°
2026-05-01 15:21 51.92653 43.94012 35118 ft 489 kts 160°
2026-05-01 15:22 51.83349 44.00534 35122 ft 489 kts 160°
2026-05-01 15:22 51.77095 44.04901 35125 ft 488 kts 161°
2026-05-01 15:23 51.70896 44.09217 35124 ft 487 kts 161°
2026-05-01 15:23 51.64677 44.13533 35136 ft 489 kts 161°
2026-05-01 15:24 51.58475 44.17826 35127 ft 487 kts 161°
2026-05-01 15:24 51.52235 44.22130 35134 ft 487 kts 161°
2026-05-01 15:25 51.46036 44.26395 35128 ft 486 kts 161°
2026-05-01 15:25 51.39870 44.30624 35126 ft 486 kts 161°
2026-05-01 15:26 51.33628 44.34893 35127 ft 486 kts 161°
2026-05-01 15:26 51.27365 44.39163 35132 ft 486 kts 162°
2026-05-01 15:27 51.21188 44.43362 35135 ft 486 kts 162°
2026-05-01 15:28 51.11470 44.46288 35234 ft 476 kts 186°
2026-05-01 15:28 51.08194 44.46058 35730 ft 472 kts 187°
2026-05-01 15:28 51.04897 44.45787 36045 ft 472 kts 187°
2026-05-01 15:29 50.95147 44.44933 36129 ft 466 kts 187°
2026-05-01 15:30 50.82238 44.43754 36127 ft 465 kts 188°
2026-05-01 15:31 50.62937 44.41977 36129 ft 463 kts 188°
2026-05-01 15:32 50.50110 44.40800 36129 ft 459 kts 188°
2026-05-01 15:34 50.30896 44.39045 36146 ft 462 kts 188°